When you browse on this site, cookies collect data to enhance your experience and personalize the content and advertising you see.
Visit our Privacy Policy to learn more. By continuing to use the site, you agree to this use of cookies and data.
  • Em Portugal
  • Lista de países
  • Para 7 dias
  • Temperatura da água
  • Mapas de satélite
  • Mapa do tempo
  • Widgets de tempo
  • user-avatar
    Iniciar Sessão

    Previsão horária em Sumgait

    Hoje, 19 Julho, Sexta-feira

    Tempo Temperatura Precipitação Vento Pressão Humidade
    00:00 +27°C° 0 mm 2 m/s 733 mmHg 53%
    01:00 +27°C° 0 mm 2 m/s 733 mmHg 53%
    02:00 +27°C° 0 mm 3 m/s 733 mmHg 54%
    03:00 +26°C° 0 mm 3 m/s 734 mmHg 54%
    04:00 +27°C° 0 mm 4 m/s 734 mmHg 52%
    05:00 +28°C° 0 mm 5 m/s 735 mmHg 49%
    06:00 +28°C° 0 mm 6 m/s 735 mmHg 47%
    07:00 +30°C° 0 mm 6 m/s 736 mmHg 42%
    08:00 +32°C° 0 mm 7 m/s 736 mmHg 37%
    09:00 +34°C° 0 mm 7 m/s 736 mmHg 33%
    10:00 +34°C° 0 mm 7 m/s 737 mmHg 32%
    11:00 +35°C° 0 mm 8 m/s 737 mmHg 31%
    12:00 +37°C° 0 mm 8 m/s 737 mmHg 30%
    13:00 +35°C° 0 mm 9 m/s 736 mmHg 30%
    14:00 +35°C° 0 mm 9 m/s 736 mmHg 31%
    15:00 +36°C° 0 mm 10 m/s 736 mmHg 32%
    16:00 +34°C° 0 mm 11 m/s 736 mmHg 33%
    17:00 +33°C° 0 mm 11 m/s 736 mmHg 33%
    18:00 +33°C° 0 mm 11 m/s 736 mmHg 34%
    19:00 +32°C° 0 mm 11 m/s 736 mmHg 35%
    20:00 +32°C° 0 mm 11 m/s 736 mmHg 35%
    21:00 +32°C° 0 mm 10 m/s 737 mmHg 35%
    22:00 +31°C° 0 mm 9 m/s 737 mmHg 35%
    23:00 +30°C° 0 mm 7 m/s 737 mmHg 36%

    Amanhã, 20 Julho, Sábado

    Tempo Temperatura Precipitação Vento Pressão Humidade
    00:00 +30°C° 0 mm 5 m/s 737 mmHg 36%
    01:00 +29°C° 0 mm 5 m/s 737 mmHg 37%
    02:00 +29°C° 0 mm 5 m/s 737 mmHg 38%
    03:00 +28°C° 0 mm 5 m/s 737 mmHg 40%
    04:00 +29°C° 0 mm 5 m/s 737 mmHg 38%
    05:00 +29°C° 0 mm 4 m/s 738 mmHg 37%
    06:00 +30°C° 0 mm 4 m/s 738 mmHg 35%
    07:00 +32°C° 0 mm 6 m/s 738 mmHg 32%
    08:00 +34°C° 0 mm 7 m/s 739 mmHg 29%
    09:00 +35°C° 0 mm 9 m/s 739 mmHg 26%
    10:00 +37°C° 0 mm 9 m/s 739 mmHg 27%
    11:00 +37°C° 0 mm 10 m/s 739 mmHg 28%
    12:00 +37°C° 0 mm 10 m/s 740 mmHg 29%
    13:00 +37°C° 0 mm 11 m/s 739 mmHg 29%
    14:00 +37°C° 0 mm 12 m/s 739 mmHg 30%
    15:00 +37°C° 0 mm 12 m/s 739 mmHg 30%
    16:00 +36°C° 0 mm 12 m/s 739 mmHg 32%
    17:00 +34°C° 0 mm 13 m/s 739 mmHg 33%
    18:00 +33°C° 0 mm 13 m/s 739 mmHg 35%
    19:00 +33°C° 0 mm 12 m/s 740 mmHg 35%
    20:00 +32°C° 0 mm 12 m/s 740 mmHg 36%
    21:00 +32°C° 0 mm 11 m/s 740 mmHg 36%
    22:00 +31°C° 0 mm 11 m/s 740 mmHg 37%
    23:00 +31°C° 0 mm 10 m/s 740 mmHg 38%

    Depois de amanhã, 21 Julho, Domingo

    Tempo Temperatura Precipitação Vento Pressão Humidade
    00:00 +31°C° 0 mm 10 m/s 740 mmHg 39%
    01:00 +29°C° 0 mm 9 m/s 740 mmHg 39%
    02:00 +29°C° 0 mm 9 m/s 740 mmHg 40%
    03:00 +29°C° 0 mm 8 m/s 740 mmHg 41%
    04:00 +29°C° 0 mm 9 m/s 740 mmHg 40%
    05:00 +29°C° 0 mm 9 m/s 740 mmHg 39%
    06:00 +31°C° 0 mm 9 m/s 741 mmHg 38%
    07:00 +32°C° 0 mm 9 m/s 741 mmHg 36%
    08:00 +33°C° 0 mm 9 m/s 740 mmHg 34%
    09:00 +34°C° 0 mm 9 m/s 740 mmHg 32%
    10:00 +35°C° 0 mm 8 m/s 740 mmHg 30%
    11:00 +35°C° 0 mm 8 m/s 740 mmHg 29%
    12:00 +36°C° 0 mm 7 m/s 740 mmHg 28%
    13:00 +36°C° 0 mm 7 m/s 739 mmHg 28%
    14:00 +36°C° 0 mm 6 m/s 739 mmHg 28%
    15:00 +36°C° 0 mm 6 m/s 738 mmHg 28%
    16:00 +35°C° 0 mm 6 m/s 738 mmHg 31%
    17:00 +34°C° 0 mm 6 m/s 738 mmHg 33%
    18:00 +33°C° 0 mm 6 m/s 738 mmHg 36%
    19:00 +32°C° 0 mm 6 m/s 738 mmHg 37%
    20:00 +32°C° 0 mm 6 m/s 738 mmHg 39%
    21:00 +30°C° 0 mm 6 m/s 738 mmHg 40%
    22:00 +30°C° 0 mm 6 m/s 738 mmHg 39%
    23:00 +30°C° 0 mm 5 m/s 738 mmHg 39%

    22 Julho, Segunda-feira

    Tempo Temperatura Precipitação Vento Pressão Humidade
    00:00 +30°C° 0 mm 5 m/s 738 mmHg 38%
    01:00 +29°C° 0 mm 5 m/s 737 mmHg 39%
    02:00 +29°C° 0 mm 5 m/s 737 mmHg 41%
    03:00 +28°C° 0 mm 4 m/s 737 mmHg 42%
    04:00 +29°C° 0 mm 5 m/s 737 mmHg 41%
    05:00 +29°C° 0 mm 5 m/s 737 mmHg 40%
    06:00 +29°C° 0 mm 5 m/s 737 mmHg 39%
    07:00 +32°C° 0 mm 5 m/s 737 mmHg 36%
    08:00 +33°C° 0 mm 5 m/s 737 mmHg 32%
    09:00 +35°C° 0 mm 5 m/s 737 mmHg 29%
    10:00 +36°C° 0 mm 6 m/s 737 mmHg 29%
    11:00 +36°C° 0 mm 6 m/s 737 mmHg 29%
    12:00 +38°C° 0 mm 7 m/s 736 mmHg 30%
    13:00 +38°C° 0 mm 7 m/s 736 mmHg 29%
    14:00 +38°C° 0 mm 7 m/s 736 mmHg 29%
    15:00 +38°C° 0 mm 8 m/s 736 mmHg 29%
    16:00 +35°C° 0 mm 8 m/s 735 mmHg 32%
    17:00 +34°C° 0 mm 8 m/s 735 mmHg 35%
    18:00 +32°C° 0 mm 8 m/s 735 mmHg 38%
    19:00 +32°C° 0 mm 8 m/s 735 mmHg 39%
    20:00 +31°C° 0 mm 8 m/s 736 mmHg 41%
    21:00 +29°C° 0 mm 9 m/s 736 mmHg 42%
    22:00 +29°C° 0 mm 9 m/s 736 mmHg 40%
    23:00 +31°C° 0 mm 10 m/s 736 mmHg 38%

    23 Julho, Terça-feira

    Tempo Temperatura Precipitação Vento Pressão Humidade
    00:00 +31°C° 0 mm 11 m/s 736 mmHg 36%
    01:00 +31°C° 0 mm 10 m/s 735 mmHg 36%
    02:00 +29°C° 0 mm 9 m/s 735 mmHg 36%
    03:00 +29°C° 0 mm 8 m/s 735 mmHg 36%
    04:00 +29°C° 0 mm 8 m/s 735 mmHg 37%
    05:00 +29°C° 0 mm 7 m/s 736 mmHg 37%
    06:00 +29°C° 0 mm 7 m/s 736 mmHg 38%
    07:00 +32°C° 0 mm 8 m/s 736 mmHg 35%
    08:00 +33°C° 0 mm 8 m/s 736 mmHg 31%
    09:00 +35°C° 0 mm 9 m/s 736 mmHg 28%
    10:00 +35°C° 0 mm 9 m/s 736 mmHg 28%
    11:00 +37°C° 0 mm 9 m/s 736 mmHg 29%
    12:00 +37°C° 0 mm 9 m/s 736 mmHg 29%
    13:00 +37°C° 0 mm 10 m/s 735 mmHg 31%
    14:00 +36°C° 0 mm 10 m/s 735 mmHg 32%
    15:00 +34°C° 0 mm 11 m/s 734 mmHg 34%
    16:00 +34°C° 0 mm 11 m/s 734 mmHg 35%
    17:00 +33°C° 0 mm 10 m/s 734 mmHg 36%
    18:00 +32°C° 0 mm 10 m/s 734 mmHg 37%
    19:00 +32°C° 0 mm 9 m/s 734 mmHg 38%
    20:00 +31°C° 0 mm 8 m/s 734 mmHg 38%
    21:00 +30°C° 0 mm 7 m/s 734 mmHg 39%
    22:00 +29°C° 0 mm 6 m/s 734 mmHg 40%
    23:00 +29°C° 0 mm 6 m/s 734 mmHg 41%

    24 Julho, Quarta-feira

    Tempo Temperatura Precipitação Vento Pressão Humidade
    00:00 +28°C° 0 mm 5 m/s 734 mmHg 43%
    01:00 +28°C° 0 mm 4 m/s 733 mmHg 45%
    02:00 +27°C° 0 mm 4 m/s 733 mmHg 47%
    03:00 +27°C° 0 mm 3 m/s 733 mmHg 50%
    04:00 +27°C° 0 mm 3 m/s 733 mmHg 49%
    05:00 +27°C° 0 mm 2 m/s 733 mmHg 49%
    06:00 +28°C° 0 mm 1 m/s 733 mmHg 48%
    07:00 +29°C° 0 mm 1 m/s 733 mmHg 43%
    08:00 +31°C° 0 mm 1 m/s 733 mmHg 38%
    09:00 +32°C° 0 mm 1 m/s 733 mmHg 33%
    10:00 +34°C° 0 mm 2 m/s 733 mmHg 32%
    11:00 +35°C° 0 mm 3 m/s 733 mmHg 30%
    12:00 +36°C° 0 mm 4 m/s 733 mmHg 28%
    13:00 +36°C° 0 mm 4 m/s 733 mmHg 29%
    14:00 +36°C° 0 mm 5 m/s 732 mmHg 30%
    15:00 +36°C° 0 mm 5 m/s 732 mmHg 31%
    16:00 +35°C° 0 mm 5 m/s 732 mmHg 33%
    17:00 +35°C° 0 mm 5 m/s 732 mmHg 34%
    18:00 +34°C° 0 mm 5 m/s 732 mmHg 36%
    19:00 +33°C° 0 mm 4 m/s 732 mmHg 39%
    20:00 +32°C° 0 mm 4 m/s 733 mmHg 42%
    21:00 +30°C° 0 mm 3 m/s 733 mmHg 46%
    22:00 +29°C° 0 mm 2 m/s 733 mmHg 48%
    23:00 +29°C° 0 mm 1 m/s 733 mmHg 51%
    Mostrar mais